| time (UTC) | temp F | wind direction | speed MPH | gust MPH | rain 1hr in | rain 24hr in | rain mn in | humidity % | barometer mb |
| 20260903184004 | 93 | 245 | 5.0 | 9.0 | 0.00 | 0.00 | 0.00 | 56 | 1015.6 |
| 20260903183004 | 93 | 244 | 5.0 | 11.0 | 0.00 | 0.00 | 0.00 | 54 | 1015.6 |
| 20260903182004 | 93 | 240 | 5.0 | 11.0 | 0.00 | 0.00 | 0.00 | 57 | 1015.6 |
| 20260903181004 | 93 | 213 | 3.0 | 9.0 | 0.00 | 0.00 | 0.00 | 56 | 1015.6 |
| 20260903180004 | 93 | 227 | 4.0 | 11.0 | 0.00 | 0.00 | 0.00 | 58 | 1015.7 |
| 20260903175004 | 92 | 216 | 6.0 | 11.0 | 0.00 | 0.00 | 0.00 | 58 | 1015.8 |
| 20260903174004 | 92 | 205 | 5.0 | 10.0 | 0.00 | 0.00 | 0.00 | 59 | 1015.8 |
| 20260903173004 | 92 | 220 | 4.0 | 9.0 | 0.00 | 0.00 | 0.00 | 56 | 1015.9 |
| 20260903172004 | 92 | 223 | 6.0 | 10.0 | 0.00 | 0.00 | 0.00 | 57 | 1016.0 |
| 20260903171025 | 92 | 206 | 6.0 | 11.0 | 0.00 | 0.00 | 0.00 | 58 | 1016.1 |
| 20260903170004 | 91 | 217 | 6.0 | 12.0 | 0.00 | 0.00 | 0.00 | 57 | 1016.2 |
| 20260903165004 | 91 | 222 | 6.0 | 12.0 | 0.00 | 0.00 | 0.00 | 59 | 1016.3 |
| 20260903164025 | 91 | 223 | 5.0 | 16.0 | 0.00 | 0.00 | 0.00 | 59 | 1016.4 |
| 20260903163025 | 91 | 233 | 4.0 | 11.0 | 0.00 | 0.00 | 0.00 | 57 | 1016.5 |
| 20260903162004 | 91 | 235 | 5.0 | 14.0 | 0.00 | 0.00 | 0.00 | 59 | 1016.6 |
| 20260903161003 | 90 | 217 | 4.0 | 8.0 | 0.00 | 0.00 | 0.00 | 62 | 1016.7 |
| 20260903160004 | 90 | 199 | 4.0 | 10.0 | 0.00 | 0.00 | 0.00 | 63 | 1016.7 |
| 20260903155004 | 90 | 221 | 4.0 | 10.0 | 0.00 | 0.00 | 0.00 | 66 | 1016.7 |
| 20260903154004 | 90 | 211 | 3.0 | 8.0 | 0.00 | 0.00 | 0.00 | 63 | 1016.7 |
| 20260903153025 | 89 | 224 | 5.0 | 10.0 | 0.00 | 0.00 | 0.00 | 65 | 1016.7 |
| 20260903152025 | 89 | 230 | 4.0 | 9.0 | 0.00 | 0.00 | 0.00 | 65 | 1016.6 |
| 20260903151004 | 88 | 235 | 5.0 | 11.0 | 0.00 | 0.00 | 0.00 | 67 | 1016.6 |
| 20260903150004 | 88 | 223 | 4.0 | 8.0 | 0.00 | 0.00 | 0.00 | 66 | 1016.6 |
| 20260903145003 | 88 | 222 | 4.0 | 9.0 | 0.00 | 0.00 | 0.00 | 67 | 1016.6 |
| 20260903144004 | 87 | 216 | 4.0 | 11.0 | 0.00 | 0.00 | 0.00 | 66 | 1016.6 |
| 20260903143004 | 86 | 212 | 4.0 | 8.0 | 0.00 | 0.00 | 0.00 | 69 | 1016.5 |
| 20260903142004 | 86 | 195 | 3.0 | 8.0 | 0.00 | 0.00 | 0.00 | 69 | 1016.5 |
| 20260903141004 | 85 | 216 | 4.0 | 8.0 | 0.00 | 0.00 | 0.00 | 71 | 1016.6 |
| 20260903140025 | 85 | 213 | 3.0 | 7.0 | 0.00 | 0.00 | 0.00 | 72 | 1016.6 |
| 20260903135004 | 84 | 215 | 3.0 | 7.0 | 0.00 | 0.00 | 0.00 | 72 | 1016.7 |
| 20260903134025 | 84 | 203 | 3.0 | 7.0 | 0.00 | 0.00 | 0.00 | 74 | 1016.7 |
| 20260903133003 | 83 | 217 | 3.0 | 8.0 | 0.00 | 0.00 | 0.00 | 73 | 1016.9 |
| 20260903132004 | 82 | 209 | 2.0 | 5.0 | 0.00 | 0.00 | 0.00 | 74 | 1017.0 |
| 20260903131004 | 82 | 208 | 1.0 | 3.0 | 0.00 | 0.00 | 0.00 | 74 | 1017.0 |
| 20260903130004 | 81 | 211 | 2.0 | 5.0 | 0.00 | 0.00 | 0.00 | 77 | 1017.0 |
| 20260903125004 | 80 | 206 | 2.0 | 4.0 | 0.00 | 0.00 | 0.00 | 77 | 1017.1 |
| 20260903124003 | 80 | 196 | 1.0 | 3.0 | 0.00 | 0.00 | 0.00 | 77 | 1017.1 |
| 20260903123004 | 79 | 202 | 1.0 | 4.0 | 0.00 | 0.00 | 0.00 | 79 | 1017.1 |
| 20260903122004 | 78 | 208 | 2.0 | 3.0 | 0.00 | 0.00 | 0.00 | 80 | 1017.0 |
| 20260903121004 | 78 | 182 | 1.0 | 3.0 | 0.00 | 0.00 | 0.00 | 80 | 1017.0 |
| 20260903120004 | 77 | 156 | 1.0 | 4.0 | 0.00 | 0.00 | 0.00 | 81 | 1017.0 |
| 20260903115004 | 77 | 159 | 1.0 | 3.0 | 0.00 | 0.00 | 0.00 | 81 | 1016.9 |
| 20260903114004 | 77 | 161 | 1.0 | 3.0 | 0.00 | 0.00 | 0.00 | 80 | 1016.9 |
| 20260903113004 | 77 | 158 | 1.0 | 2.0 | 0.00 | 0.00 | 0.00 | 80 | 1016.7 |
| 20260903112004 | 77 | 148 | 0.0 | 1.0 | 0.00 | 0.00 | 0.00 | 80 | 1016.7 |
| 20260903111024 | 78 | 213 | 1.0 | 3.0 | 0.00 | 0.00 | 0.00 | 79 | 1016.7 |
| 20260903110004 | 78 | 183 | 0.0 | 2.0 | 0.00 | 0.00 | 0.00 | 80 | 1016.6 |
| 20260903105003 | 78 | 208 | 1.0 | 3.0 | 0.00 | 0.00 | 0.00 | 78 | 1016.5 |
| 20260903104004 | 78 | 211 | 1.0 | 4.0 | 0.00 | 0.00 | 0.00 | 77 | 1016.5 |
| 20260903103004 | 78 | 229 | 1.0 | 3.0 | 0.00 | 0.00 | 0.00 | 77 | 1016.4 |
| 20260903102003 | 79 | 230 | 1.0 | 4.0 | 0.00 | 0.00 | 0.00 | 76 | 1016.4 |
| 20260903101025 | 78 | 224 | 2.0 | 4.0 | 0.00 | 0.00 | 0.00 | 76 | 1016.3 |
| 20260903100004 | 79 | 201 | 1.0 | 4.0 | 0.00 | 0.00 | 0.00 | 76 | 1016.4 |
| 20260903095003 | 79 | 185 | 1.0 | 3.0 | 0.00 | 0.00 | 0.00 | 75 | 1016.3 |
| 20260903094004 | 80 | 200 | 2.0 | 5.0 | 0.00 | 0.00 | 0.00 | 74 | 1016.3 |
| 20260903093004 | 80 | 214 | 2.0 | 5.0 | 0.00 | 0.00 | 0.00 | 74 | 1016.4 |
| 20260903092004 | 80 | 217 | 2.0 | 4.0 | 0.00 | 0.00 | 0.00 | 74 | 1016.3 |
| 20260903091024 | 79 | 218 | 2.0 | 4.0 | 0.00 | 0.00 | 0.00 | 75 | 1016.3 |
| 20260903090004 | 79 | 209 | 1.0 | 3.0 | 0.00 | 0.00 | 0.00 | 75 | 1016.3 |
| 20260903085004 | 79 | 220 | 1.0 | 4.0 | 0.00 | 0.00 | 0.00 | 76 | 1016.3 |
| 20260903084025 | 79 | 212 | 1.0 | 4.0 | 0.00 | 0.00 | 0.00 | 76 | 1016.3 |
| 20260903083004 | 79 | 216 | 2.0 | 4.0 | 0.00 | 0.00 | 0.00 | 77 | 1016.3 |
| 20260903082003 | 79 | 208 | 1.0 | 3.0 | 0.00 | 0.00 | 0.00 | 78 | 1016.3 |
| 20260903081003 | 79 | 204 | 1.0 | 3.0 | 0.00 | 0.00 | 0.00 | 78 | 1016.3 |
| 20260903080004 | 79 | 188 | 1.0 | 3.0 | 0.00 | 0.00 | 0.00 | 78 | 1016.3 |
| 20260903075004 | 79 | 202 | 1.0 | 3.0 | 0.00 | 0.00 | 0.00 | 78 | 1016.3 |
| 20260903074024 | 79 | 196 | 1.0 | 3.0 | 0.00 | 0.00 | 0.00 | 78 | 1016.3 |
| 20260903073004 | 79 | 202 | 1.0 | 3.0 | 0.00 | 0.00 | 0.00 | 78 | 1016.3 |
| 20260903072025 | 80 | 212 | 2.0 | 4.0 | 0.00 | 0.00 | 0.00 | 77 | 1016.2 |
| 20260903071004 | 80 | 209 | 1.0 | 4.0 | 0.00 | 0.00 | 0.00 | 78 | 1016.2 |
| 20260903070004 | 80 | 213 | 1.0 | 3.0 | 0.00 | 0.00 | 0.00 | 78 | 1016.3 |
| 20260903065003 | 80 | 216 | 1.0 | 3.0 | 0.00 | 0.00 | 0.00 | 78 | 1016.2 |
| 20260903064004 | 80 | 199 | 1.0 | 3.0 | 0.00 | 0.00 | 0.00 | 78 | 1016.3 |
| 20260903063003 | 80 | 200 | 1.0 | 3.0 | 0.00 | 0.00 | 0.00 | 78 | 1016.3 |
| 20260903062025 | 80 | 208 | 2.0 | 4.0 | 0.00 | 0.00 | 0.00 | 78 | 1016.3 |
| 20260903061024 | 80 | 215 | 1.0 | 3.0 | 0.00 | 0.00 | 0.00 | 79 | 1016.3 |
| 20260903060004 | 80 | 200 | 1.0 | 3.0 | 0.00 | 0.00 | 0.00 | 79 | 1016.2 |
| 20260903055004 | 80 | 167 | 0.0 | 3.0 | 0.00 | 0.00 | 0.00 | 79 | 1016.1 |
| 20260903054024 | 80 | 163 | 1.0 | 3.0 | 0.00 | 0.00 | 0.00 | 79 | 1016.2 |
| 20260903053004 | 80 | 165 | 1.0 | 4.0 | 0.00 | 0.00 | 0.00 | 79 | 1016.1 |
| 20260903052003 | 80 | 173 | 1.0 | 5.0 | 0.00 | 0.00 | 0.00 | 79 | 1016.0 |
| 20260903051004 | 80 | 157 | 0.0 | 3.0 | 0.00 | 0.00 | 0.00 | 80 | 1015.9 |
| 20260903050004 | 80 | 170 | 0.0 | 1.0 | 0.00 | 0.00 | 0.00 | 80 | 1015.8 |
| 20260903045004 | 80 | 0 | 0.0 | 0.0 | 0.00 | 0.00 | 0.00 | 80 | 1015.8 |
| 20260903044003 | 80 | 0 | 0.0 | 0.0 | 0.00 | 0.00 | 0.00 | 80 | 1015.8 |
| 20260903043004 | 80 | 0 | 0.0 | 0.0 | 0.00 | 0.00 | 0.00 | 80 | 1015.7 |
| 20260903042003 | 80 | 0 | 0.0 | 0.0 | 0.00 | 0.00 | 0.00 | 79 | 1015.8 |
| 20260903041003 | 80 | 0 | 0.0 | 0.0 | 0.00 | 0.00 | 0.00 | 79 | 1015.8 |
| 20260903040004 | 81 | 0 | 0.0 | 0.0 | 0.00 | 0.00 | 0.00 | 79 | 1015.8 |
| 20260903035004 | 81 | 0 | 0.0 | 0.0 | 0.00 | 0.00 | 0.00 | 78 | 1015.7 |
| 20260903034003 | 81 | 0 | 0.0 | 0.0 | 0.00 | 0.00 | 0.00 | 78 | 1015.8 |
| 20260903033003 | 82 | 0 | 0.0 | 0.0 | 0.00 | 0.00 | 0.00 | 78 | 1015.8 |
| 20260903032003 | 82 | 0 | 0.0 | 0.0 | 0.00 | 0.00 | 0.00 | 78 | 1015.9 |
| 20260903031003 | 82 | 0 | 0.0 | 0.0 | 0.00 | 0.00 | 0.00 | 78 | 1015.9 |
| 20260903030004 | 80 | 0 | 0.0 | 0.0 | 0.00 | 0.00 | 0.00 | 80 | 1015.8 |
| 20260903025003 | 80 | 0 | 0.0 | 0.0 | 0.00 | 0.00 | 0.00 | 82 | 1016.0 |
| 20260903024003 | 79 | 0 | 0.0 | 0.0 | 0.00 | 0.00 | 0.00 | 83 | 1016.0 |
| 20260903023003 | 79 | 0 | 0.0 | 0.0 | 0.00 | 0.00 | 0.00 | 83 | 1016.0 |
| 20260903022003 | 79 | 0 | 0.0 | 0.0 | 0.00 | 0.00 | 0.00 | 83 | 1015.9 |
| 20260903021024 | 80 | 0 | 0.0 | 0.0 | 0.00 | 0.00 | 0.00 | 82 | 1015.9 |
| 20260903020003 | 81 | 0 | 0.0 | 0.0 | 0.00 | 0.00 | 0.00 | 79 | 1015.8 |
| 20260903015003 | 82 | 0 | 0.0 | 0.0 | 0.00 | 0.00 | 0.00 | 77 | 1015.9 |
| 20260903014003 | 82 | 0 | 0.0 | 0.0 | 0.00 | 0.00 | 0.00 | 77 | 1015.8 |
| 20260903013004 | 82 | 0 | 0.0 | 0.0 | 0.00 | 0.00 | 0.00 | 79 | 1015.7 |
| 20260903012003 | 81 | 0 | 0.0 | 0.0 | 0.00 | 0.00 | 0.00 | 80 | 1015.6 |
| 20260903011004 | 81 | 0 | 0.0 | 0.0 | 0.00 | 0.00 | 0.00 | 82 | 1015.5 |
| 20260903010004 | 81 | 0 | 0.0 | 0.0 | 0.00 | 0.00 | 0.00 | 81 | 1015.4 |
| 20260903005003 | 82 | 0 | 0.0 | 0.0 | 0.00 | 0.00 | 0.00 | 81 | 1015.3 |
| 20260903004003 | 82 | 0 | 0.0 | 0.0 | 0.00 | 0.00 | 0.00 | 79 | 1015.2 |
| 20260903003004 | 83 | 0 | 0.0 | 0.0 | 0.00 | 0.00 | 0.00 | 76 | 1015.3 |
| 20260903002004 | 84 | 0 | 0.0 | 0.0 | 0.00 | 0.00 | 0.00 | 75 | 1015.3 |
| 20260903001025 | 86 | 0 | 0.0 | 0.0 | 0.00 | 0.00 | 0.00 | 70 | 1015.2 |
| 20260903000004 | 87 | 0 | 0.0 | 0.0 | 0.00 | 0.00 | 0.00 | 68 | 1015.2 |
| 20260902235003 | 87 | 217 | 1.0 | 3.0 | 0.00 | 0.00 | 0.00 | 67 | 1015.2 |
| 20260902234003 | 88 | 216 | 2.0 | 4.0 | 0.00 | 0.00 | 0.00 | 66 | 1015.2 |
| 20260902233003 | 89 | 218 | 2.0 | 4.0 | 0.00 | 0.00 | 0.00 | 66 | 1015.2 |
| 20260902232004 | 89 | 215 | 2.0 | 6.0 | 0.00 | 0.00 | 0.00 | 65 | 1015.2 |
| 20260902231024 | 90 | 209 | 3.0 | 5.0 | 0.00 | 0.00 | 0.00 | 63 | 1015.3 |
| 20260902230003 | 90 | 222 | 2.0 | 6.0 | 0.00 | 0.00 | 0.00 | 64 | 1015.3 |
| 20260902225003 | 90 | 220 | 2.0 | 6.0 | 0.00 | 0.00 | 0.00 | 64 | 1015.2 |
| 20260902224003 | 91 | 212 | 2.0 | 6.0 | 0.00 | 0.00 | 0.00 | 61 | 1015.2 |
| 20260902223003 | 91 | 224 | 3.0 | 8.0 | 0.00 | 0.00 | 0.00 | 60 | 1015.3 |
| 20260902222004 | 92 | 219 | 4.0 | 9.0 | 0.00 | 0.00 | 0.00 | 59 | 1015.3 |
| 20260902221003 | 92 | 212 | 3.0 | 9.0 | 0.00 | 0.00 | 0.00 | 58 | 1015.5 |
| 20260902220003 | 92 | 218 | 6.0 | 12.0 | 0.00 | 0.00 | 0.00 | 58 | 1015.4 |
| 20260902215004 | 92 | 232 | 4.0 | 10.0 | 0.00 | 0.00 | 0.00 | 58 | 1015.4 |
| 20260902214003 | 92 | 194 | 4.0 | 9.0 | 0.00 | 0.00 | 0.00 | 58 | 1015.4 |
| 20260902213003 | 92 | 211 | 5.0 | 14.0 | 0.00 | 0.00 | 0.00 | 57 | 1015.5 |
| 20260902212003 | 92 | 210 | 5.0 | 10.0 | 0.00 | 0.00 | 0.00 | 59 | 1015.5 |
| 20260902211003 | 92 | 231 | 4.0 | 11.0 | 0.00 | 0.00 | 0.00 | 57 | 1015.6 |
| 20260902210004 | 92 | 209 | 5.0 | 11.0 | 0.00 | 0.00 | 0.00 | 59 | 1015.7 |
| 20260902205004 | 92 | 227 | 5.0 | 10.0 | 0.00 | 0.00 | 0.00 | 58 | 1015.7 |
| 20260902204003 | 93 | 213 | 5.0 | 10.0 | 0.00 | 0.00 | 0.00 | 57 | 1015.7 |
| 20260902203003 | 93 | 217 | 4.0 | 10.0 | 0.00 | 0.00 | 0.00 | 58 | 1015.7 |
| 20260902202004 | 93 | 205 | 4.0 | 10.0 | 0.00 | 0.00 | 0.00 | 57 | 1015.9 |
| 20260902201003 | 93 | 181 | 4.0 | 10.0 | 0.00 | 0.00 | 0.00 | 59 | 1016.0 |
| 20260902200003 | 93 | 208 | 4.0 | 9.0 | 0.00 | 0.00 | 0.00 | 59 | 1016.1 |
| 20260902195003 | 93 | 235 | 4.0 | 9.0 | 0.00 | 0.00 | 0.00 | 59 | 1016.2 |
| 20260902194024 | 93 | 228 | 5.0 | 11.0 | 0.00 | 0.00 | 0.00 | 59 | 1016.3 |
| 20260902193003 | 93 | 219 | 4.0 | 12.0 | 0.00 | 0.00 | 0.00 | 59 | 1016.4 |
| 20260902192004 | 93 | 248 | 4.0 | 9.0 | 0.00 | 0.00 | 0.00 | 58 | 1016.4 |
| 20260902191004 | 93 | 234 | 4.0 | 9.0 | 0.00 | 0.00 | 0.00 | 60 | 1016.5 |
| 20260902190004 | 93 | 216 | 4.0 | 12.0 | 0.00 | 0.00 | 0.00 | 59 | 1016.5 |
| 20260902185003 | 92 | 223 | 5.0 | 12.0 | 0.00 | 0.00 | 0.00 | 56 | 1016.5 |